Location: Keeble Observatory
(37.7625°N, 77.4755°W)
Time: 19:30:32
(UTC-04:00)

Daily predictions for brighter satellites

Satellite Brightness Start Highest point End
(mag) Time Altitude Azimuth Time Altitude Azimuth Time Altitude Azimuth
Cosmos 1892 Rocket 3.6 20:02:49 10° N 20:07:20 82° E 20:11:48 10° S
Cosmos 1455 Rocket 3.0 20:03:36 10° S 20:07:52 65° E 20:12:12 10° NNE
Meteor 1-29 3.0 20:06:16 10° NNE 20:09:44 88° ESE 20:13:13 10° SSW
Cosmos 1975 3.7 20:06:15 10° SSE 20:09:50 30° E 20:13:27 10° NNE
Meteor 1-23 Rocket 4.4 20:04:44 10° N 20:10:24 82° W 20:16:08 10° S
NOSS 3-4 (A) 4.0 20:07:17 10° NW 20:14:24 82° WSW 20:21:54 10° SSE
NOSS 3-4 (C) 4.0 20:07:25 10° NW 20:14:32 83° WSW 20:22:02 10° SSE
Lacrosse 5 rocket 1.0 20:10:53 10° NW 20:14:36 70° NE 20:18:11 10° SE
Cosmos 2227 Rocket 2.2 20:09:01 10° NNW 20:14:42 73° ENE 20:20:19 10° SSE
Tiangong 1 2.3 20:12:04 10° WNW 20:14:57 33° N 20:17:48 10° ENE
Cosmos 1602 Rocket 4.3 20:11:22 10° NNE 20:15:23 33° ENE 20:19:22 10° SE
CZ-2D R/B 3.9 20:14:50 10° SE 20:18:24 36° ENE 20:21:59 10° N
Cosmos 1500 4.3 20:16:29 10° SE 20:19:28 23° E 20:22:28 10° NE
FengYun 1-2 T 4.3 20:17:18 10° SSE 20:22:56 79° ENE 20:28:33 10° N
Cosmos 2123 Rocket 4.0 20:18:06 10° N 20:24:17 74° E 20:30:27 10° SSE
Resurs 1-3 3.7 20:21:15 10° SSE 20:25:38 85° WSW 20:30:02 10° NNW
Cosmos 2297 Rocket 2.2 20:23:56 10° NNW 20:29:36 69° ENE 20:35:13 10° SSE
Okean 2 4.1 20:26:43 10° NNW 20:30:49 58° W 20:34:52 10° S
CZ-4B DEB 2.7 20:27:54 10° SSE 20:31:10 82° ENE 20:34:27 10° N
Cosmos 2082 3.7 20:25:44 10° NNW 20:31:23 88° WSW 20:37:00 10° SSE
Helios 1B rocket 3.9 20:28:07 10° N 20:32:01 42° WNW 20:35:53 10° SW
SL-24 R/B - RUBIN 2 4.5 20:28:56 10° SSW 20:34:42 86° WNW 20:41:12 10° NNE
Meteor 1-12 Rocket 4.2 20:29:11 10° S 20:34:52 73° E 20:40:43 10° NNE
Spot 2 Rocket 4.5 20:33:21 10° S 20:38:16 49° W 20:43:12 10° NNW
Iridium 4 Rocket 3.5 20:36:58 10° N 20:41:43 48° E 20:46:02 10° SSE
Cosmos 1346 Rocket 4.0 20:40:48 10° NNW 20:44:36 45° W 20:48:25 10° SSW
Cosmos 1515 3.9 20:41:43 10° N 20:45:28 50° E 20:48:36 14° SSE
Envisat 4.1 20:46:26 18° ESE 20:48:51 26° ENE 20:53:01 10° NNE
Cosmos 1939 Rocket 4.2 20:48:12 20° E 20:49:35 24° ENE 20:52:55 10° NNE
Lacrosse 5 2.3 20:45:47 10° NNW 20:50:42 50° NE 20:53:46 22° ESE
Cosmos 1937 Rocket 4.0 20:46:40 10° N 20:51:42 43° ENE 20:54:56 20° SE
Resurs 01 Rocket 3.5 20:48:33 10° SSW 20:52:28 31° W 20:56:26 10° NW
Cosmos 1153 Rocket 4.4 20:47:47 10° S 20:53:58 82° E 21:00:08 10° N
Cosmos 2298 Rocket 4.0 20:49:51 10° NNW 20:55:10 73° ENE 20:59:37 15° SSE
SPOT 5 4.3 20:58:56 19° E 20:59:54 20° ENE 21:03:20 10° NNE
Cosmos 1743 3.1 20:59:22 22° SSE 21:01:26 41° E 21:05:08 10° NNE
Cosmos 1697 Rocket 2.7 20:56:22 10° SSW 21:02:01 86° WNW 21:07:42 10° NNE
Cosmos 1447 Rocket 4.5 20:56:29 10° N 21:02:51 86° E 21:09:13 10° S
SJ-11-01 4.5 21:03:16 24° SE 21:05:51 52° ENE 21:10:24 10° N
Cosmos 1066 Rocket 4.2 21:02:46 10° N 21:08:30 74° E 21:13:21 15° SSE
Cosmos 1726 Rocket 4.2 21:09:03 32° E 21:09:22 32° E 21:13:17 10° NNE
Cosmos 1802 Rocket 4.1 21:04:54 10° SSE 21:11:05 55° E 21:17:20 10° NNE
ERS-1 Rocket 3.1 21:08:34 26° SE 21:11:13 55° ENE 21:16:07 10° N
SL-16 R/B 3.5 21:16:07 21° ENE 21:16:07 21° ENE 21:18:48 10° NE
RESURS DK-1 2.2 21:13:26 10° NNW 21:17:35 75° ENE 21:18:51 43° SE
Cosmos 2016 Rocket 4.1 21:14:02 17° SSE 21:18:39 51° E 21:24:38 10° NNE
CZ-4 DEB 2.5 21:19:01 72° ESE 21:19:10 74° ENE 21:22:18 10° N
Cosmos 2150 Rocket 4.1 21:15:18 10° NNW 21:20:28 76° WSW 21:23:51 22° S
OTV 4 3.1 21:21:51 10° SW 21:22:59 12° SSW 21:22:59 12° SSW
Cosmos 1763 Rocket 3.3 21:18:45 10° S 21:23:49 70° ESE 21:28:52 10° NNE
USA 186 3.6 21:22:40 12° SSW 21:24:57 26° W 21:27:27 10° NW
ALOS 3.9 21:21:02 10° SSW 21:25:12 32° W 21:29:25 10° NNW
Cosmos 1825 Rocket 3.5 21:21:34 10° N 21:25:57 65° E 21:26:56 49° SE
Cosmos 1980 Rocket 2.1 21:20:20 10° SSW 21:26:00 90° WNW 21:31:44 10° NNE
OAO 2 Rocket 3.4 21:22:00 10° W 21:26:56 60° S 21:28:13 45° SE
Cosmos 2173 Rocket 4.0 21:24:15 10° S 21:30:37 90° W 21:36:59 10° N
Cosmos 1898 Rocket 4.1 21:28:29 10° NNW 21:33:38 53° WSW 21:37:06 20° S
Cosmos 2098 Rocket 4.1 21:31:59 29° SSE 21:35:15 54° E 21:40:51 10° NNE
H-2A R/B 2.3 21:37:53 48° NE 21:37:53 48° NE 21:41:33 10° N
Cosmos 1953 Rocket 3.5 21:33:09 10° N 21:37:36 64° E 21:37:48 63° E
Cosmos 1842 4.4 21:34:27 10° N 21:36:55 30° NE 21:36:55 30° NE
Cosmos 1125 Rocket 4.3 21:35:06 10° N 21:39:48 34° ENE 21:39:48 34° ENE
Nimbus 7 Rocket 4.4 21:36:30 10° NNE 21:42:33 67° ESE 21:45:42 29° S
DELTA 2 R/B (1) 4.1 21:37:27 10° W 21:42:42 44° SSW 21:43:49 39° S
Cosmos 967 Rocket 4.4 21:36:53 10° NNW 21:43:15 75° ENE 21:45:05 48° SE
Cosmos 1666 4.0 21:45:23 30° NNE 21:45:23 30° NNE 21:47:26 10° NNE
Cosmos 1864 Rocket 4.5 21:46:03 49° SE 21:47:11 57° E 21:53:10 10° NNE
Cosmos 2100 Rocket 4.5 21:41:27 10° SSW 21:47:38 60° W 21:53:47 10° N
Cosmos 841 Rocket 3.5 21:42:54 10° SSW 21:48:09 80° WNW 21:53:24 10° NNE
CZ-3C R/B 4.0 21:22:07 10° W 21:51:04 29° SW 21:55:35 21° S
Tiangong 1 3.0 21:48:32 10° WNW 21:50:14 29° WNW 21:50:14 29° WNW
YAOGAN 6 4.3 21:53:36 26° NNE 21:53:36 26° NNE 21:55:26 10° N
Cosmos 2263 Rocket 3.6 21:48:43 10° N 21:52:51 23° NE 21:52:51 23° NE
Cosmos 1758 Rocket 3.6 21:51:39 10° N 21:55:33 71° N 21:55:33 71° N
ASTEX 1 3.2 21:53:56 10° N 21:58:57 81° E 21:58:58 81° E
Cosmos 2322 Rocket 2.2 22:00:47 61° ENE 22:00:47 61° ENE 22:05:42 10° NNE
Tsikada Rocket 4.0 21:55:19 10° N 22:01:43 66° E 22:02:25 61° ESE
Cosmos 1340 3.8 22:00:40 10° NNW 22:03:55 42° WNW 22:03:55 42° WNW
deb Chang Zheng 4 3.9 22:00:59 10° N 22:05:25 66° WNW 22:05:37 65° W
Meteor 1-15 Rocket 4.2 22:08:02 68° S 22:08:51 86° E 22:14:46 10° N
MetOp-A 4.0 22:12:56 88° W 22:12:56 88° W 22:18:19 10° NNW
Meteor 2-9 Rocket 4.2 22:12:19 61° SW 22:13:13 75° W 22:18:38 10° N
Cosmos 1816 Rocket 4.4 22:12:11 10° N 22:18:26 70° ENE 22:18:26 70° ENE
Cosmos 1725 Rocket 4.0 22:18:10 52° SSW 22:19:45 76° W 22:26:02 10° N
Cosmos 2058 Rocket 4.0 22:22:25 47° WNW 22:22:25 47° WNW 22:26:30 10° N
Milstar 3 Cent rocket 4.3 22:08:18 10° W 22:27:24 48° SSW 22:30:15 42° S
Envisat 4.3 22:26:38 30° WSW 22:27:41 33° W 22:32:16 10° NNW
Lacrosse 5 3.6 22:29:20 10° WNW 22:32:58 24° WSW 22:32:58 24° WSW
SPOT 5 3.9 22:38:12 41° W 22:38:12 41° W 22:42:15 10° NNW
Cosmos 2233 Rocket 4.1 22:43:02 70° NNW 22:43:02 70° NNW 22:48:33 10° N
H-2A R/B 3.6 22:56:29 28° N 22:56:29 28° N 22:58:49 10° N
ARGOS 4.1 22:57:44 44° NW 22:57:44 44° NW 23:01:36 10° NNW
Terra 3.9 22:59:15 22° N 22:59:15 22° N 23:01:00 10° N
SL-16 R/B 3.2 22:57:53 42° WNW 22:58:08 42° WNW 23:03:31 10° N
Cosmos 2360 Rocket 4.2 23:14:22 20° NNE 23:14:22 20° NNE 23:16:03 10° NNE
BREEZE-M DEB (TANK) 4.2 22:50:47 10° WNW 23:14:31 77° NNE 23:14:38 77° NE
USA 215 3.9 23:21:34 49° N 23:21:34 49° N 23:26:49 10° NW
BREEZE-M DEB (TANK) 4.4 23:21:56 10° NW 23:31:51 50° NW 23:31:51 50° NW
Cosmos 2263 Rocket 4.0 23:31:58 10° NW 23:34:33 26° NW 23:34:33 26° NW
